Wetbulb
65.49 64.82 66.76 67.17 66.48 65.29 64.63 64.47 64.61 65.34 65.25 65.56 66.14 66.46 66.69 66.08 65.92 65.36 65.06 66.39 67.44 70.12 72.88 72.86 72.23 71.53 71.10 69.97 69.20 69.20 69.20 69.27 69.36 69.30 68.57 67.97 67.51 67.35 66.44 65.32 63.64 62.26 60.58
66.42 66.07 65.63 65.68 65.50 65.39 64.47 64.32 64.29 64.69 64.84 64.90 65.03 65.41 65.97 65.68 65.76 65.46 64.92 65.38 65.32 66.88 69.51 72.11 72.80 72.77 72.23 71.45 69.90 69.27 69.18 68.98 69.12 69.33 68.91 68.13 67.58 67.06 66.01 64.97 63.58 62.44 60.80
66.87 66.24 64.47 64.20 64.68 64.09 63.99 63.28 63.94 62.51 64.16 64.29 63.80 63.86 64.47 64.45 65.19 64.96 64.39 63.55 63.73 63.72 65.44 68.02 70.18 71.56 72.21 72.42 71.17 70.08 69.54 68.82 68.62 68.89 68.80 68.36 67.73 67.02 65.99 64.77 63.62 62.66 61.26
68.03 65.30 64.32 63.83 64.09 63.42 64.32 63.59 63.02 62.57 62.61 63.05 61.77 62.54 63.53 64.02 64.14 64.17 63.64 63.11 61.94 63.56 62.77 64.22 66.32 68.49 69.78 71.58 72.33 72.08 71.16 69.68 68.89 68.80 68.62 68.16 67.80 67.13 66.15 64.77 63.69 62.62 61.61
68.61 66.46 65.12 64.10 64.17 64.13 63.99 63.84 62.53 62.67 61.82 61.63 62.11 62.35 62.33 62.30 63.62 65.20 63.78 63.42 62.19 61.53 61.42 62.03 63.27 64.35 66.26 68.56 70.70 72.45 72.69 71.75 70.22 69.54 68.94 68.29 67.87 67.20 66.28 65.12 63.93 62.88 61.68
68.50 67.42 65.53 65.32 64.87 64.06 63.07 63.28 62.22 62.21 61.57 61.65 63.41 62.51 60.20 61.04 60.83 61.20 62.03 63.59 62.63 62.09 61.28 61.68 61.47 62.08 62.68 65.75 67.73 69.82 71.43 72.00 71.56 70.74 69.78 68.87 68.16 67.31 66.39 65.34 64.17 63.14 61.90
68.71 67.91 66.84 65.34 65.95 64.26 63.07 62.39 61.91 61.61 61.16 60.72 59.71 58.65 58.84 60.38 59.92 60.06 60.76 60.74 60.69 62.41 62.16 62.07 61.90 61.78 61.95 62.93 65.46 68.08 70.11 71.46 71.16 71.06 70.33 69.07 68.07 67.13 66.30 65.32 64.41 63.38 62.16
68.75 68.33 67.34 66.27 65.26 64.75 62.61 62.22 61.84 60.38 61.16 60.64 58.71 57.06 54.98 56.99 58.70 60.77 60.53 60.99 60.48 60.82 61.86 62.49 62.62 63.42 63.19 63.04 62.59 64.74 67.56 69.19 69.98 69.76 69.59 68.96 67.89 67.26 66.41 65.63 64.56 63.60 62.46
68.76 68.46 67.42 67.03 65.88 64.95 64.20 63.12 62.73 61.80 60.12 60.35 60.08 57.80 53.89 53.22 54.83 58.32 60.38 61.12 61.13 60.64 62.16 61.48 62.47 63.58 64.64 64.71 63.65 62.67 61.06 62.54 66.37 68.27 68.40 68.54 68.21 67.60 66.75 65.83 64.92 63.92 62.79
68.19 68.15 67.72 67.06 66.57 65.84 64.43 64.56 64.45 63.30 60.86 60.77 59.68 62.13 58.98 58.76 56.31 56.47 60.48 59.89 60.62 61.50 61.90 61.86 61.82 63.76 64.09 65.01 64.81 62.18 58.81 57.41 59.64 64.30 66.41 67.35 68.35 67.98 67.26 66.14 65.32 64.21 63.04
68.37 68.30 67.81 67.02 66.15 66.22 65.15 64.25 64.57 64.20 63.47 62.46 61.28 58.97 60.61 60.83 58.32 58.09 56.21 57.94 62.82 63.51 64.52 63.78 63.30 63.34 65.25 65.73 65.84 64.03 58.16 55.99 56.26 59.71 62.84 64.85 66.50 67.26 66.99 66.50 65.72 64.85 63.62
68.06 68.33 68.19 67.52 66.78 66.17 65.60 65.09 64.24 64.23 64.18 63.83 63.00 61.71 60.07 58.77 59.31 57.74 57.87 57.11 57.88 60.65 65.12 65.46 65.56 65.43 66.43 66.45 65.48 61.59 58.60 55.84 54.36 56.65 58.98 61.65 63.42 65.09 66.03 66.50 65.94 65.34 64.17
66.28 67.06 67.79 67.76 67.36 67.47 66.68 65.91 65.29 64.59 64.28 63.86 63.56 62.81 62.77 61.80 61.54 61.74 60.48 59.48 58.13 59.80 60.42 63.67 66.36 67.09 66.92 66.38 65.92 60.76 58.27 55.66 55.46 55.68 56.66 58.17 59.71 61.35 62.76 64.25 65.42 65.67 64.45
57.04 59.27 60.93 65.28 67.84 68.14 67.83 67.53 66.19 65.60 64.70 64.32 63.78 63.92 63.92 63.33 62.18 63.12 62.02 61.01 57.43 58.29 59.81 61.26 63.72 64.98 64.55 64.80 63.71 57.69 62.34 56.26 54.69 52.48 53.12 54.22 55.34 56.60 57.40 58.85 60.73 62.62 62.78
53.70 56.16 56.85 57.43 60.13 66.32 67.50 67.71 67.15 65.98 65.74 64.54 64.70 64.50 63.89 64.15 62.77 61.92 60.58 61.16 60.07 57.61 58.09 59.54 62.07 64.02 64.04 63.12 61.72 62.59 62.04 58.12 53.89 51.50 50.60 51.63 52.67 54.05 54.47 55.26 56.48 58.39 59.44
51.93 51.95 53.44 55.78 54.81 55.48 57.55 63.35 65.97 66.68 65.99 65.37 64.79 64.17 64.05 64.33 64.06 63.30 62.52 62.68 61.97 60.99 58.30 60.88 60.79 63.40 63.17 62.19 60.95 61.80 61.21 54.53 52.11 50.05 47.88 48.22 48.55 50.14 51.51 52.27 53.65 54.87 54.74
49.92 51.11 51.50 52.05 53.90 53.27 52.96 54.10 55.70 56.77 61.56 64.14 64.28 64.25 64.74 64.80 64.53 64.59 64.22 63.67 62.61 62.64 60.68 62.18 61.52 61.97 62.05 62.29 61.00 60.17 58.19 56.88 53.08 48.04 47.70 47.88 47.52 47.66 48.95 49.29 49.36 49.47 49.27
47.98 49.10 50.07 51.37 51.30 52.20 52.22 51.09 51.09 52.16 53.86 54.79 56.12 59.43 63.88 64.95 64.59 64.88 64.70 63.73 63.78 64.04 63.24 61.51 63.57 61.89 60.89 61.12 60.19 57.00 55.88 54.75 52.24 48.95 47.70 46.59 46.19 45.47 45.54 45.33 45.30 45.39 45.44
45.22 46.35 48.12 49.26 49.52 51.51 50.31 50.25 50.00 49.86 49.96 51.55 53.86 55.58 55.45 57.40 59.40 62.02 63.70 64.20 64.39 64.73 64.35 63.63 62.92 61.25 60.48 56.94 53.22 51.55 50.65 49.40 49.20 49.41 46.52 44.93 44.98 44.81 44.32 44.04 43.58 42.90 41.86
42.98 44.22 45.29 46.78 47.39 47.81 48.22 47.36 48.01 47.63 48.45 49.35 50.35 52.50 55.35 55.72 55.11 54.29 58.15 58.29 59.45 60.42 62.88 62.26 61.55 58.93 57.57 52.88 51.93 49.98 45.69 47.05 45.80 45.58 45.22 44.03 43.82 43.84 43.27 42.64 41.66 41.03 39.98
43.20 44.47 44.51 45.32 45.93 46.19 45.86 44.41 45.14 45.46 46.56 46.90 48.34 49.93 51.67 51.96 48.40 48.37 52.65 53.98 54.39 55.40 56.66 57.69 56.86 53.28 51.12 45.70 50.02 50.74 50.56 46.01 43.11 43.39 41.25 41.05 41.82 41.28 41.28 41.07 40.74 39.56 37.97
42.96 43.76 43.88 44.00 44.86 45.81 41.57 40.72 41.20 42.93 44.17 44.97 46.09 48.54 50.03 50.25 49.71 45.34 45.52 45.88 46.61 52.40 53.83 54.35 55.17 52.88 53.02 52.50 50.36 49.09 44.25 40.41 41.17 41.99 38.95 36.61 39.51 38.13 38.36 37.62 38.13 36.93 36.17
41.23 40.90 41.43 42.35 41.84 43.31 40.20 40.39 38.83 41.97 43.49 45.01 45.86 46.93 47.94 49.48 49.09 51.95 47.05 44.48 43.48 42.79 43.71 50.27 50.79 51.57 50.36 49.02 49.62 47.08 46.16 45.05 41.63 38.40 37.26 32.80 35.44 33.07 35.92 36.64 36.27 35.63 35.23
38.65 38.42 38.68 39.44 39.50 40.41 38.78 38.50 37.84 41.95 42.94 44.28 45.48 46.82 47.36 46.91 47.15 44.61 47.13 48.60 48.61 48.91 48.02 47.10 48.28 48.51 47.86 47.46 47.35 49.38 48.56 41.09 36.56 36.41 36.86 31.81 32.64 30.95 32.70 33.96 35.46 34.94 34.54
35.05 35.56 37.19 37.74 37.83 38.15 37.94 37.72 37.62 39.02 39.47 39.32 43.30 43.12 42.85 42.72 38.29 39.34 42.82 42.97 41.55 39.12 42.90 42.22 40.23 39.38 38.58 37.86 39.46 40.78 35.37 35.90 32.82 32.82 33.00 32.38 31.13 29.47 30.74 30.58 32.82 34.50 34.63
35.62 36.26 36.08 36.89 37.01 37.25 37.46 37.36 37.59 37.55 36.12 36.81 38.60 39.54 38.56 38.86 36.87 37.73 39.30 39.62 36.68 34.28 34.99 36.00 36.20 37.12 37.28 39.28 37.50 42.33 40.17 37.51 33.16 31.90 33.01 31.19 30.54 30.41 27.55 31.13 31.26 32.06 32.53
MSLP
1017.46 1017.88 1018.14 1018.40 1018.65 1019.04 1019.39 1019.59 1019.69 1019.78 1019.85 1019.72 1019.65 1019.59 1019.44 1019.29 1019.29 1019.37 1019.65 1019.95 1019.94 1019.88 1019.86 1019.89 1020.02 1020.23 1020.46 1020.64 1020.80 1020.92 1021.03 1021.07 1021.11 1021.24 1021.38 1021.55 1021.72 1021.75 1021.84 1021.99 1022.15 1022.24 1022.40
1017.02 1017.15 1017.55 1017.84 1018.18 1018.44 1018.78 1019.06 1019.14 1019.33 1019.42 1019.30 1019.18 1019.14 1019.06 1018.96 1018.85 1018.89 1019.25 1019.47 1019.55 1019.57 1019.63 1019.58 1019.53 1019.64 1019.82 1019.96 1020.11 1020.26 1020.34 1020.43 1020.65 1020.78 1020.90 1021.01 1021.09 1021.14 1021.33 1021.53 1021.59 1021.61 1021.65
1016.47 1016.56 1016.88 1017.20 1017.45 1017.84 1018.16 1018.54 1018.67 1018.84 1018.97 1018.94 1019.00 1018.70 1018.65 1018.53 1018.58 1018.68 1018.77 1019.16 1019.24 1019.19 1019.12 1019.10 1019.10 1019.15 1019.19 1019.25 1019.42 1019.59 1019.78 1019.99 1020.15 1020.22 1020.31 1020.41 1020.37 1020.41 1020.52 1020.68 1020.80 1021.00 1021.15
1015.84 1016.19 1016.43 1016.70 1016.78 1017.15 1017.47 1017.82 1018.24 1018.49 1018.62 1018.69 1018.67 1018.56 1018.40 1018.33 1018.27 1018.27 1018.21 1018.29 1018.47 1018.52 1018.64 1018.63 1018.63 1018.73 1018.75 1018.76 1018.86 1019.13 1019.32 1019.42 1019.47 1019.50 1019.59 1019.64 1019.65 1019.72 1019.90 1020.06 1020.35 1020.47 1020.50
1015.18 1015.54 1015.82 1016.02 1016.28 1016.54 1016.95 1017.29 1017.74 1017.89 1018.14 1018.24 1018.30 1018.27 1018.18 1018.12 1017.79 1017.60 1017.72 1017.62 1017.56 1017.60 1017.66 1017.73 1017.92 1018.03 1018.12 1018.32 1018.48 1018.48 1018.58 1018.73 1018.77 1018.84 1018.89 1019.00 1019.10 1019.18 1019.35 1019.53 1019.64 1019.87 1020.01
1014.61 1014.87 1015.23 1015.50 1015.66 1016.14 1016.42 1016.74 1017.00 1017.30 1017.46 1017.72 1017.76 1017.69 1017.66 1017.61 1017.44 1017.43 1017.13 1016.94 1016.97 1016.92 1016.84 1016.92 1017.04 1017.20 1017.28 1017.55 1017.68 1017.83 1017.89 1017.88 1017.94 1017.93 1017.96 1018.02 1018.09 1018.35 1018.58 1018.64 1018.80 1018.98 1019.10
1013.77 1014.07 1014.58 1015.05 1015.23 1015.55 1015.65 1016.00 1016.44 1016.91 1017.13 1017.14 1017.83 1017.88 1017.61 1017.21 1017.02 1016.82 1016.37 1016.34 1016.32 1016.10 1016.26 1016.21 1016.28 1016.45 1016.51 1016.63 1016.68 1016.70 1016.66 1016.76 1016.75 1016.64 1016.60 1016.63 1016.97 1017.25 1017.36 1017.48 1017.63 1017.81 1018.15
1012.71 1013.23 1013.82 1014.33 1014.74 1015.13 1015.30 1015.39 1015.78 1016.38 1016.60 1016.69 1017.26 1017.94 1017.81 1017.15 1016.52 1015.98 1015.82 1015.73 1015.51 1015.40 1015.49 1015.41 1015.46 1015.53 1015.56 1015.62 1015.50 1015.44 1015.47 1015.47 1015.62 1015.71 1015.85 1015.85 1015.78 1015.90 1016.36 1016.85 1017.07 1017.34 1017.61
1011.88 1012.19 1012.76 1013.37 1013.85 1014.26 1014.60 1014.72 1014.97 1015.46 1015.92 1016.19 1016.26 1016.74 1017.34 1017.04 1016.41 1015.40 1014.99 1014.86 1014.82 1014.84 1014.77 1014.75 1014.74 1014.82 1014.83 1014.77 1014.60 1014.68 1014.73 1014.89 1014.98 1015.13 1015.12 1015.01 1015.03 1015.25 1015.31 1015.30 1015.82 1016.39 1016.89
1011.16 1011.33 1011.67 1012.20 1012.85 1013.27 1013.64 1013.80 1014.14 1014.47 1015.10 1015.44 1015.90 1015.52 1015.40 1015.62 1016.06 1015.74 1014.93 1014.41 1014.19 1014.19 1014.13 1014.11 1014.08 1013.88 1013.79 1013.90 1013.94 1013.94 1013.94 1014.14 1014.30 1014.39 1014.54 1014.94 1015.19 1015.26 1015.45 1015.66 1015.46 1015.37 1015.94
1010.45 1010.59 1010.94 1011.62 1012.11 1012.49 1012.76 1013.06 1013.23 1013.59 1013.97 1014.29 1014.48 1014.75 1014.96 1015.10 1015.40 1015.65 1015.12 1014.70 1014.12 1013.49 1013.25 1013.18 1013.05 1012.88 1013.07 1013.14 1013.11 1013.11 1013.16 1013.36 1013.45 1013.53 1013.91 1014.26 1014.65 1014.93 1015.11 1015.08 1015.29 1015.34 1015.23
1009.70 1009.75 1010.13 1010.76 1011.32 1011.68 1011.89 1012.16 1012.40 1012.55 1012.84 1013.11 1013.26 1013.61 1013.68 1013.99 1014.37 1014.88 1014.95 1014.32 1014.09 1013.41 1012.83 1012.70 1012.49 1012.46 1012.28 1012.34 1012.50 1012.59 1012.75 1012.93 1013.43 1013.81 1013.89 1013.86 1014.09 1014.24 1014.34 1014.65 1014.72 1014.76 1014.86
1010.60 1010.07 1009.79 1009.81 1010.36 1010.62 1010.98 1011.29 1011.60 1011.80 1011.84 1011.88 1012.05 1012.10 1012.47 1012.66 1012.81 1013.16 1013.63 1013.59 1013.67 1013.12 1012.75 1012.22 1011.74 1011.33 1011.34 1011.50 1011.57 1011.74 1012.25 1012.76 1013.07 1013.03 1013.02 1013.26 1013.52 1013.64 1013.24 1013.42 1013.60 1013.75 1014.11
1010.60 1012.25 1010.64 1009.76 1009.68 1009.40 1009.62 1009.95 1010.27 1010.64 1011.16 1011.28 1011.25 1011.47 1011.63 1011.80 1012.17 1012.30 1012.56 1013.07 1013.14 1012.90 1012.42 1011.64 1011.23 1011.20 1011.07 1011.06 1011.02 1011.63 1011.97 1012.40 1012.70 1012.83 1012.90 1013.27 1013.56 1013.57 1013.57 1013.35 1013.47 1013.34 1013.21
1012.57 1011.44 1012.23 1011.28 1010.70 1009.89 1009.45 1009.17 1009.26 1009.57 1009.82 1010.32 1010.44 1010.40 1010.81 1011.00 1011.39 1011.55 1011.94 1012.11 1012.31 1012.32 1011.68 1011.38 1011.35 1010.77 1010.85 1010.87 1010.83 1011.08 1011.38 1011.79 1012.14 1012.45 1012.69 1012.98 1013.14 1013.24 1013.14 1013.23 1013.22 1013.17 1012.94
1015.60 1014.68 1012.60 1012.47 1011.49 1012.15 1010.73 1009.65 1008.89 1009.03 1009.14 1009.07 1009.53 1009.90 1009.86 1009.96 1010.70 1010.69 1010.86 1011.12 1011.40 1011.18 1010.61 1010.37 1010.27 1010.29 1010.33 1010.44 1010.50 1010.79 1011.16 1011.46 1011.80 1012.12 1012.41 1012.62 1012.84 1013.12 1012.82 1012.78 1012.83 1013.15 1013.42
1016.55 1016.56 1014.46 1014.37 1012.64 1013.11 1013.89 1011.44 1009.77 1009.92 1009.27 1008.61 1008.70 1008.64 1008.74 1008.98 1009.53 1009.80 1009.85 1010.06 1010.18 1010.31 1010.04 1009.29 1009.66 1009.63 1009.88 1010.03 1010.21 1010.31 1010.89 1011.10 1011.56 1011.83 1012.16 1012.58 1012.87 1012.89 1012.61 1012.71 1013.01 1013.37 1013.99
1017.12 1016.41 1016.11 1014.64 1013.34 1013.09 1014.62 1014.23 1010.47 1011.46 1010.58 1009.42 1009.40 1009.07 1008.71 1008.57 1008.66 1008.69 1008.64 1008.47 1009.17 1008.95 1009.15 1008.98 1009.07 1009.36 1009.50 1009.65 1009.97 1010.25 1010.45 1010.98 1011.60 1012.00 1011.90 1012.65 1013.12 1012.90 1012.68 1013.18 1013.67 1014.02 1014.54
1016.67 1016.40 1015.50 1014.16 1014.04 1014.05 1013.67 1013.70 1012.82 1013.37 1009.15 1009.43 1010.40 1011.39 1010.43 1009.73 1009.22 1008.52 1008.15 1008.06 1008.23 1008.06 1008.17 1008.55 1008.58 1008.92 1009.15 1009.70 1010.11 1010.44 1010.88 1011.45 1011.80 1012.26 1012.61 1013.15 1013.14 1012.86 1013.52 1013.82 1014.07 1014.48 1015.01
1017.63 1017.12 1016.29 1015.71 1015.28 1014.68 1014.52 1013.40 1013.32 1011.93 1010.98 1010.81 1011.93 1010.56 1011.62 1010.11 1009.60 1010.67 1008.67 1008.52 1008.02 1008.00 1007.56 1007.87 1008.13 1008.71 1008.92 1009.50 1009.77 1010.30 1011.00 1011.31 1012.49 1012.52 1012.89 1013.45 1013.45 1013.32 1013.77 1014.48 1014.60 1014.93 1015.53
1017.62 1017.34 1016.82 1016.36 1015.73 1014.62 1014.02 1013.09 1012.91 1012.82 1012.73 1011.88 1011.37 1011.76 1011.32 1010.81 1010.00 1009.57 1007.99 1010.27 1007.95 1007.85 1008.96 1008.17 1008.10 1008.42 1008.94 1009.78 1009.80 1009.79 1010.68 1010.90 1011.87 1012.43 1013.16 1013.57 1013.45 1013.83 1014.37 1014.58 1015.01 1015.33 1015.89
1017.79 1017.17 1016.75 1016.48 1016.34 1015.75 1015.08 1014.70 1014.85 1013.76 1012.84 1012.13 1011.76 1011.08 1011.02 1010.37 1008.92 1008.77 1007.90 1009.33 1008.61 1009.07 1009.53 1007.37 1009.29 1008.46 1008.32 1009.52 1009.52 1008.98 1010.26 1010.38 1011.87 1012.15 1012.87 1013.65 1013.67 1014.09 1014.50 1014.75 1015.07 1015.63 1015.88
1018.38 1017.89 1017.29 1016.82 1016.43 1015.96 1015.81 1015.01 1013.95 1013.57 1013.00 1012.19 1012.09 1011.53 1011.25 1010.23 1009.99 1010.65 1009.27 1009.57 1009.36 1010.40 1009.85 1009.87 1008.77 1008.39 1008.27 1010.54 1010.08 1009.91 1010.07 1010.72 1010.54 1011.67 1012.22 1013.84 1013.85 1014.67 1015.31 1015.31 1015.40 1015.42 1015.61
1018.98 1018.26 1017.71 1016.66 1016.65 1016.00 1015.48 1015.00 1014.29 1013.84 1013.56 1013.28 1013.02 1012.57 1012.37 1011.36 1012.02 1011.44 1009.88 1009.63 1010.28 1009.54 1009.79 1010.24 1008.83 1008.73 1009.14 1009.55 1010.40 1009.87 1009.74 1010.76 1011.34 1011.52 1011.50 1013.01 1013.76 1014.78 1015.18 1015.65 1015.69 1015.65 1015.90
1019.33 1018.95 1018.21 1017.22 1017.02 1016.22 1015.31 1015.11 1015.00 1014.54 1014.30 1014.16 1013.66 1013.02 1012.54 1012.14 1012.30 1011.75 1010.80 1010.44 1010.34 1009.64 1010.09 1009.74 1009.48 1009.89 1009.67 1009.59 1009.79 1009.99 1010.42 1010.74 1011.24 1011.66 1011.81 1012.27 1013.82 1014.43 1015.17 1015.66 1015.70 1015.56 1015.80
1019.66 1019.15 1018.59 1018.02 1017.34 1016.57 1015.99 1015.70 1015.30 1014.91 1014.53 1013.92 1013.33 1013.05 1012.42 1012.33 1011.74 1012.18 1011.78 1010.89 1011.08 1010.72 1010.70 1010.28 1009.88 1009.47 1009.29 1009.64 1009.67 1010.08 1009.72 1009.73 1010.46 1011.09 1010.96 1011.53 1013.10 1013.44 1014.99 1015.71 1015.86 1015.50 1015.98
Wind_Speed
6 5 6 6 6 5 5 5 6 6 7 8 6 6 6 6 6 3 4 12 12 13 15 17 17 16 15 13 13 12 12 13 13 11 11 10 9 9 8 7 7 7 6
6 7 7 7 7 7 6 6 7 6 7 6 7 6 6 5 4 2 4 7 14 12 12 14 17 17 17 16 15 14 14 14 13 12 12 12 11 11 10 10 10 10 10
7 9 7 8 8 7 9 6 8 5 6 6 7 6 5 6 5 6 4 5 6 13 15 15 15 16 18 18 17 16 15 14 13 14 13 13 13 14 14 13 13 13 12
7 7 6 6 8 7 8 8 6 6 5 7 5 5 5 6 7 7 6 5 5 6 10 15 14 15 16 17 18 16 16 15 15 15 15 16 16 16 15 14 14 14 14
9 8 6 6 7 6 7 8 6 5 5 5 5 5 5 5 8 8 9 9 9 7 6 11 18 16 16 17 17 18 18 17 17 17 16 17 17 17 16 16 16 16 15
12 7 6 6 6 5 5 5 5 5 4 5 6 6 5 5 5 6 9 9 8 9 8 8 7 9 17 17 19 20 20 20 20 19 19 19 19 18 18 18 18 18 17
14 11 6 7 5 7 7 6 5 6 5 4 3 3 4 6 7 7 7 7 8 10 9 9 6 5 6 19 20 22 23 23 23 23 23 22 20 19 20 20 20 20 20
16 14 12 7 8 5 7 8 6 4 4 5 5 2 3 6 4 7 7 9 10 6 9 11 11 10 9 7 13 23 23 24 24 24 23 21 21 21 20 20 20 20 19
16 16 14 13 9 7 8 7 8 11 7 5 7 6 2 6 1 4 11 10 12 7 8 7 9 10 10 9 10 12 19 20 21 22 23 22 22 21 21 22 21 20 19
16 17 15 15 15 9 9 10 8 7 6 10 3 8 5 4 4 4 3 5 7 9 9 7 7 9 11 10 11 13 15 19 18 22 22 20 18 18 19 20 21 22 21
15 17 16 15 13 11 9 10 12 12 9 8 7 3 8 9 4 5 8 5 2 5 8 9 11 9 8 9 9 10 17 16 18 19 17 16 16 16 16 18 20 19 22
11 16 17 14 15 13 13 10 9 12 13 11 10 8 6 5 11 5 7 8 9 6 6 6 7 6 8 6 7 12 14 15 7 9 13 13 12 15 13 15 19 20 20
4 5 9 14 12 14 14 12 12 12 13 14 14 12 11 10 4 9 8 8 6 6 4 5 9 10 8 6 6 11 6 6 10 12 11 9 12 12 13 14 17 20 20
11 12 7 6 9 15 14 14 12 12 10 11 15 12 10 10 8 7 6 8 4 4 4 8 4 6 4 5 6 2 5 11 11 7 5 5 6 8 10 9 12 14 19
13 13 14 14 13 7 9 14 10 12 13 11 11 12 12 8 6 6 4 6 6 8 9 4 4 5 5 4 5 4 5 6 4 4 2 4 6 8 8 10 11 15 14
12 14 16 13 16 16 11 6 6 10 11 8 8 9 9 8 8 6 6 6 5 10 13 9 6 5 5 4 5 5 5 8 6 3 1 3 5 8 9 10 11 7 12
13 13 11 11 13 13 17 14 10 11 7 6 7 9 13 13 11 10 10 11 12 10 13 13 4 4 4 5 4 4 5 4 3 5 3 4 7 9 4 7 12 15 15
6 8 8 7 11 10 2 14 13 13 13 13 12 11 9 7 13 13 10 12 12 12 10 17 10 5 6 4 3 3 4 4 4 3 3 3 6 7 11 13 12 14 15
12 12 13 13 13 11 7 4 10 10 10 13 14 12 8 10 7 4 6 10 11 10 10 12 9 4 4 2 2 2 3 3 3 6 4 5 8 12 10 11 14 15 14
11 11 11 11 10 8 7 9 10 11 12 8 9 13 12 6 7 13 7 5 6 6 7 8 6 5 4 2 1 3 2 2 0 2 4 4 7 12 13 12 14 14 12
9 8 9 11 10 9 6 10 9 10 10 8 10 6 6 11 8 3 5 10 8 6 5 5 3 1 2 2 4 3 3 3 2 3 3 2 5 5 6 11 11 13 11
12 12 11 10 10 8 11 12 12 11 9 8 9 9 9 12 9 6 4 11 5 5 7 5 4 1 3 5 2 2 2 4 4 3 4 2 3 4 4 4 13 12 10
11 11 11 11 13 12 17 18 17 10 9 10 10 10 10 10 10 6 3 9 7 14 11 1 4 1 5 2 3 3 3 4 3 3 4 2 1 5 3 6 12 12 10
11 11 12 12 12 10 15 14 14 11 10 10 9 9 8 9 11 9 6 2 4 6 4 3 6 6 2 2 3 4 3 2 3 2 2 5 3 2 3 3 9 10 8
7 10 11 13 13 13 15 16 13 9 8 8 7 8 8 8 9 15 10 7 6 5 3 5 4 5 6 6 5 3 3 3 3 3 2 4 3 4 3 2 3 8 8
8 11 12 11 13 13 12 14 13 8 10 8 8 10 11 8 7 9 8 7 7 3 5 9 5 3 3 4 4 10 3 4 3 1 5 5 5 4 3 2 2 2 2
Wind_Direction
183 162 173 173 175 170 186 188 193 205 219 237 235 233 246 245 239 159 162 203 207 203 199 196 198 203 208 213 217 220 222 226 228 227 224 232 240 232 231 233 229 234 243
190 181 178 180 184 179 190 191 199 202 218 224 239 239 239 242 272 215 189 200 213 213 211 210 207 207 211 214 216 220 222 226 229 230 225 226 232 226 224 227 224 223 227
190 197 182 181 190 183 189 194 205 202 206 223 235 245 246 245 245 247 222 198 216 224 214 217 218 214 215 217 216 219 222 225 228 231 228 225 226 222 217 217 218 220 227
191 196 195 187 191 179 192 198 195 209 204 212 221 228 223 225 229 234 234 222 197 212 223 229 227 223 224 225 224 224 225 223 226 229 228 226 226 224 218 216 220 220 220
198 189 196 200 192 186 186 199 208 185 202 203 210 230 239 226 226 230 229 232 228 209 209 215 219 222 225 227 230 231 231 228 227 228 229 228 230 226 219 218 219 219 221
203 178 199 203 196 187 185 180 184 197 177 197 225 229 230 234 225 218 227 229 231 231 222 208 208 222 222 220 226 231 235 234 231 229 228 227 225 224 221 218 218 218 217
198 199 196 206 201 203 196 187 169 189 225 185 135 292 289 252 243 239 231 228 224 228 226 227 216 208 212 220 222 226 230 232 232 230 228 224 224 223 220 217 216 214 217
195 204 201 200 207 197 207 191 176 186 207 190 194 143 277 305 259 233 229 234 231 213 224 227 225 211 213 208 217 225 227 229 233 232 232 228 223 220 219 222 222 221 222
196 199 201 204 203 196 207 201 194 197 209 221 196 164 169 229 285 249 236 229 234 221 231 225 221 221 219 219 221 223 223 228 234 236 237 234 228 227 221 217 218 220 222
204 200 197 200 208 205 204 208 197 199 171 216 228 224 224 156 194 308 298 252 231 223 224 233 228 221 219 222 219 214 212 223 228 234 239 244 245 238 232 231 224 216 222
203 203 200 200 205 211 210 205 210 208 202 210 208 186 224 236 209 201 266 287 278 225 223 224 229 230 223 222 228 224 220 221 226 230 237 243 258 257 250 240 238 232 222
205 200 196 195 205 211 215 212 210 207 207 211 212 209 192 186 227 206 239 251 249 269 231 222 227 220 226 217 218 229 225 230 246 244 244 247 252 248 249 251 246 238 231
296 255 215 196 204 205 211 213 213 216 214 213 211 216 224 226 194 210 219 246 232 245 258 238 229 228 228 215 211 216 209 212 247 235 234 239 243 248 234 238 241 235 224
11 336 338 341 234 208 209 209 215 218 220 223 225 220 225 229 222 216 211 215 267 253 236 237 241 236 223 222 222 301 263 261 262 239 248 274 268 270 271 265 263 251 214
10 354 3 1 349 314 241 214 214 216 216 217 217 211 222 221 222 226 207 202 216 253 254 253 237 216 229 227 228 224 245 233 173 146 181 250 265 273 273 270 272 255 201
3 351 7 351 13 355 5 349 257 233 217 210 215 208 205 210 224 215 221 234 224 248 265 252 234 221 211 212 218 207 180 136 107 112 65 348 332 310 300 291 278 181 123
6 345 25 355 22 25 347 357 25 9 323 245 219 205 225 226 232 229 229 234 242 242 253 263 219 220 223 214 202 155 158 158 139 122 96 332 293 273 260 126 115 112 114
352 18 8 348 23 48 195 345 8 1 357 7 2 355 275 244 231 229 222 224 232 229 239 253 245 213 200 216 247 161 134 108 123 130 103 249 245 137 118 110 106 106 113
2 355 350 359 7 7 40 8 328 324 19 18 357 327 334 336 331 316 266 240 238 241 236 245 247 218 221 228 109 68 101 81 81 109 118 151 137 113 106 115 117 115 114
357 347 354 347 342 344 19 10 342 353 4 20 289 347 306 331 359 337 312 335 357 336 258 230 236 237 222 204 184 152 152 74 168 90 96 122 114 112 116 114 114 117 120
1 354 348 347 341 343 357 2 8 354 345 344 341 305 309 310 290 240 340 323 342 3 325 319 267 233 242 252 201 182 213 136 179 144 127 143 129 119 123 118 126 124 122
351 350 355 350 338 342 353 357 349 332 333 332 317 320 318 308 1 321 7 274 262 350 300 323 236 285 76 280 279 150 201 133 215 227 119 125 104 122 123 113 128 126 122
343 341 349 345 346 341 346 344 358 344 329 336 330 323 320 334 337 292 310 291 304 254 243 310 259 173 86 303 345 274 251 263 140 167 112 106 77 101 72 117 131 131 130
342 349 337 344 330 330 333 340 346 343 331 321 317 316 324 339 337 334 323 292 305 353 16 281 356 5 334 250 253 277 276 140 35 38 138 138 145 100 116 106 135 132 132
337 330 332 334 329 325 336 336 340 337 326 315 324 337 354 8 1 16 7 354 327 351 304 27 17 315 315 292 252 133 206 152 174 195 223 110 141 117 120 135 152 143 149
327 328 325 321 317 316 317 316 325 324 316 314 321 318 324 313 341 344 337 342 317 281 318 330 327 316 333 313 329 231 192 191 139 158 212 115 152 138 137 168 191 142 138